STARLINK-5415, 54796

Orbit data source: Space-Track

STARLINK-5415, 54796 is a payload satellite owned by SpaceX/Seattle (US) in LEO that was launched on Sat, 17 Dec 2022 UTC via an FALCON 9 launch vehicle from the Air Force Eastern Test Range (AFETR). Payload-class satellites include a variety of spacecraft equipped with specific instruments for various scientific and technological missions. These include communications satellites like Starlink; space stations such as the ISS; scientific satellites like the Hubble; Earth observation satellites from companies like Planet Labs, Umbra, and HawkEye 360; GPS; miniature CubeSats for education and research; and military/defense satellites.

Loading next visibility...
Identifier
54796, 2022-175AQ
Orbit
LEO
Country
Flag of USUS
Related business
Manufacturer
SpaceX/Seattle
Mission
Operational Commercial Communications
Bus & Motor
STARLINK, Unknown motor
Mass
305 kg wet, ~290 kg dry
Launch date (UTC)
2022-12-17 (4 years ago)
Launch vehicle
FALCON 9
Launch site
Air Force Eastern Test Range (AFETR)
Object type
Payload
Rocket body
Debris
Shape & HBR
Box + 1 Pan, 10.1 m
Radar Cross Section
13.562 m², Large (>1 m²)

Expand to show TLE details & history
Last TLE update: 3 days ago

TLE from 3 days ago
0 STARLINK-5415
1 54796U 22175AQ  26170.63696678 -.00000364  00000-0 -47915-5 0  9991
2 54796  53.1611 291.0986 0000923  90.7380 269.3717 15.08832812195521
Epoch: 2026-06-19T15:17Z
TLE epoch observation values (Epoch: 2026-06-19T15:17:13.929Z)
Latitude
-0.00005°
Longitude
153.92744°
Altitude
540.664 km
Speed
7.593 km/s
True Right ascension
19h 24m 23s
True Declination
0° 00' 00"
Sunlit
Object was in full shadow at epoch
Visualization orbit readout
Latitude
Unknown
Longitude
Unknown
Altitude
Unknown
Speed
Unknown
Apparent Right ascension
Unknown
Apparent Declination
Unknown
Sunlit
N/A
Visualization observer readout
Local Sidereal Time
21:31:56
Azimuth
Unknown
Elevation
Unknown
Doppler factor
Unknown
Orbital elements
Apogee altitude
540.658 km
Perigee altitude
539.381 km
Semi-major axis
6,918.156 km
Eccentricity
0.00009
Inclination
53.1611°
RAAN
291.0986°
Arg. of periapsis
90.738°
True anomaly
269.36112°
Mean anomaly
269.3717°
Eccentric anomaly
269.36641°
Mean motion
3.77188 °/min
Orbital period
95.44 mins
BSTAR
-0.0000047915
Loading maneuver chart data...
Computing Atmospheric mass density...
Loading historical data...
Loading historical data...
Loading historical data...
Loading historical data...
Loading historical data...
Loading historical data...
Loading historical data...

Documentation

Showing up to 5 results
|